Theta_e
313 313 312 312 312 312 311 311 310 308 307 307 307 307 308 308 309 309 309 308 307 306
312 312 311 312 312 312 311 308 307 307 306 306 306 306 307 307 307 307 308 308 308 306
312 312 312 312 310 311 309 305 306 305 305 305 305 305 305 305 305 304 306 305 305 305
312 311 311 310 310 308 306 305 304 303 302 302 302 302 302 302 302 301 301 302 302 301
312 311 310 309 308 306 304 303 302 302 301 300 300 301 300 299 299 298 298 299 299 298
311 309 308 308 306 304 303 302 301 301 300 299 300 299 299 298 298 298 297 297 297 297
308 308 307 306 304 302 302 301 300 300 299 299 299 298 298 297 296 296 296 296 296 296
307 306 305 303 302 301 301 300 300 299 298 298 297 297 297 296 295 295 295 295 295 296
304 302 301 300 300 300 299 299 299 298 298 298 296 296 294 294 294 294 294 294 294 295
300 299 299 299 299 299 298 299 298 298 297 296 296 294 294 295 294 294 294 294 294 293
299 299 299 299 298 298 299 298 298 297 296 295 294 293 293 294 294 294 294 294 293 292
299 298 298 297 298 298 298 297 296 295 294 293 293 293 292 292 292 292 292 292 292 291
300 298 298 298 298 298 297 295 294 292 292 293 291 294 293 292 290 289 289 290 290 293
298 298 298 298 297 295 293 292 291 290 290 290 291 292 294 292 290 289 288 288 288 289
Wind_Speed
12 6 5 6 4 5 5 4 5 4 3 3 5 3 3 3 3 3 3 5 4 4
7 6 5 5 5 3 5 4 5 5 5 4 3 3 3 3 3 3 3 3 3 4
8 7 5 5 5 4 4 4 4 4 4 3 3 3 3 3 3 3 3 2 4 4
6 5 6 5 5 4 4 5 4 4 4 3 4 4 4 4 3 4 4 3 4 5
8 8 7 6 6 6 6 5 5 5 5 5 5 5 5 4 4 5 4 4 4 5
8 8 8 8 7 7 7 7 6 6 6 6 5 4 5 5 5 5 4 4 4 5
8 8 8 7 7 7 6 6 6 6 5 4 4 4 5 5 5 4 4 4 4 5
7 7 6 6 6 6 5 4 4 4 4 4 4 4 4 4 4 5 5 4 5 4
7 6 6 5 5 5 5 5 4 5 4 3 3 3 3 5 5 5 5 5 4 4
7 6 5 5 6 6 6 5 5 5 5 6 5 7 7 7 6 5 5 5 5 5
6 6 6 5 5 5 5 5 5 5 5 5 5 8 8 6 6 6 6 6 6 7
6 6 5 6 6 5 4 5 5 5 5 6 6 10 7 5 5 6 7 7 7 7
5 6 6 6 5 4 5 6 4 5 5 5 5 6 7 6 5 7 6 7 7 10
5 5 5 5 4 4 5 4 4 5 5 6 7 7 9 10 7 6 7 6 6 7
Wind_Direction
222 192 187 199 183 196 200 201 159 183 191 174 208 198 207 221 229 246 240 244 253 267
223 189 176 192 198 191 202 159 167 182 195 193 206 206 212 233 224 223 246 251 246 258
205 190 174 189 201 190 174 171 182 184 198 184 209 213 213 237 223 246 247 255 266 255
191 184 183 192 190 181 167 185 184 186 204 200 208 213 226 228 249 238 253 254 251 263
190 183 182 192 184 185 194 181 187 193 207 202 213 221 234 247 232 250 254 259 270 270
184 184 191 193 184 192 193 190 187 202 211 214 218 228 237 247 256 264 269 265 261 267
185 189 192 185 190 195 202 202 203 212 223 230 233 242 252 251 265 267 261 259 263 269
180 185 183 188 196 196 203 217 219 223 224 234 234 241 256 252 259 266 270 264 242 242
182 184 193 195 197 200 210 218 213 222 238 234 246 138 237 264 269 261 251 255 267 263
193 193 193 194 199 205 213 213 219 232 235 241 239 171 223 232 250 262 268 270 268 265
195 200 192 199 209 216 219 221 227 232 234 235 232 191 220 227 255 263 257 259 263 268
199 206 204 210 219 222 215 221 224 226 228 230 236 191 219 237 265 270 269 268 267 269
196 213 213 215 214 205 215 226 208 228 235 253 266 190 217 241 264 270 272 268 264 250
195 207 213 200 200 200 217 220 226 235 242 239 235 248 216 239 251 262 269 269 267 263